Hazlehurst, GA

8:07 AM EDT on October 16, 2019 (GMT -0400)
Hazlehurst

Weather History for KAZE - August, 2019

Change the Weather History Date:

Thursday, August 15, 2019

  Actual Average Record
Temperature  
Mean Temperature 85 °F -  
Max Temperature 95 °F 92 °F 96 °F (2017)
Min Temperature 75 °F 66 °F 69 °F (2013)
Cooling Degree Days 20    
Growing Degree Days 35 (Base 50)    
Moisture  
Dew Point 73 °F    
Average Humidity 78    
Maximum Humidity 91    
Minimum Humidity 44    
Precipitation  
Precipitation 0.00 in - - ()
Sea Level Pressure  
Sea Level Pressure 29.92 in    
Wind  
Wind Speed 1 mph (South)    
Max Wind Speed 14 mph    
Max Gust Speed 17 mph    
Visibility 9 miles    
Events Rain , Thunderstorm    
Averages and records for this station are not official NWS values.
T = Trace of Precipitation, MM = Missing Value Source: NWS Daily Summary

Daily Weather History Graph

Daily Weather History Graph

Search for Another Location

Airport or City:

Astronomy

Aug. 15, 2019 Rise Set
Actual Time 6:55 AM EDT 8:14 PM EDT
Civil Twilight 6:29 AM EDT 8:40 PM EDT
Nautical Twilight 5:58 AM EDT 9:10 PM EDT
Astronomical Twilight 5:26 AM EDT 9:42 PM EDT
Moon 8:41 PM EDT (8/15) 6:51 AM EDT (8/15)
Length of Visible Light 14h 10m
Length of Day
13h 19m
Full, 100% of the Moon is Illuminated
Aug 15
Full
Aug 23
Last Quarter
Aug 30
New
Sep 5
First Quarter
Sep 14
Full

Hourly Weather History & Observations

Time (EDT) Temp. Heat Index Dew Point Humidity Pressure Visibility Wind Dir Wind Speed Gust Speed Precip Events Conditions
12:10 AM 77.0 °F - 73.0 °F 88% 29.90 in 10.0 mi Calm Calm - N/A   Clear
12:30 AM 76.8 °F - 72.9 °F 88% 29.91 in 10.0 mi Calm Calm - N/A   Clear
12:50 AM 76.6 °F - 73.0 °F 89% 29.91 in 10.0 mi Calm Calm - N/A   Clear
1:10 AM 76.5 °F - 72.9 °F 89% 29.91 in 10.0 mi Calm Calm - N/A   Clear
1:30 AM 76.3 °F - 72.9 °F 89% 29.90 in 10.0 mi ESE 3.5 mph - N/A   Clear
1:50 AM 76.1 °F - 72.9 °F 90% 29.91 in 10.0 mi Calm Calm - N/A   Scattered Clouds
2:10 AM 76.1 °F - 72.9 °F 90% 29.91 in 10.0 mi Calm Calm - N/A   Mostly Cloudy
2:30 AM 76.1 °F - 72.9 °F 90% 29.91 in 10.0 mi Calm Calm - N/A   Mostly Cloudy
2:50 AM 76.1 °F - 72.9 °F 90% 29.91 in 10.0 mi Calm Calm - N/A   Scattered Clouds
3:10 AM 76.1 °F - 72.7 °F 89% 29.91 in 7.0 mi Calm Calm - N/A   Clear
3:30 AM 75.7 °F - 72.7 °F 90% 29.92 in 5.0 mi Calm Calm - N/A   Mostly Cloudy
3:50 AM 75.7 °F - 72.7 °F 90% 29.92 in 7.0 mi Calm Calm - N/A   Scattered Clouds
4:10 AM 75.7 °F - 72.7 °F 90% 29.92 in 10.0 mi South 3.5 mph - N/A   Clear
4:30 AM 75.7 °F - 72.7 °F 90% 29.92 in 10.0 mi SSW 3.5 mph - N/A   Clear
4:50 AM 75.6 °F - 72.5 °F 90% 29.93 in 10.0 mi Calm Calm - N/A   Clear
5:10 AM 75.6 °F - 72.5 °F 90% 29.94 in 10.0 mi Calm Calm - N/A   Scattered Clouds
5:30 AM 75.6 °F - 72.5 °F 90% 29.94 in 10.0 mi Calm Calm - N/A   Mostly Cloudy
5:50 AM 75.4 °F - 72.5 °F 91% 29.94 in 10.0 mi Calm Calm - N/A   Mostly Cloudy
6:10 AM 75.6 °F - 72.5 °F 90% 29.94 in 10.0 mi Calm Calm - N/A   Overcast
6:30 AM 75.7 °F - 72.7 °F 90% 29.94 in 10.0 mi Calm Calm - N/A   Overcast
6:50 AM 75.6 °F - 72.5 °F 90% 29.94 in 10.0 mi Calm Calm - N/A   Overcast
7:15 AM 75.7 °F - 72.5 °F 90% 29.94 in 10.0 mi Calm Calm - N/A   Overcast
7:30 AM 76.1 °F - 72.7 °F 89% 29.94 in 10.0 mi Calm Calm - N/A   Overcast
7:50 AM 76.1 °F - 72.7 °F 89% 29.94 in 4.0 mi Calm Calm - N/A   Overcast
8:10 AM 76.1 °F - 72.9 °F 90% 29.95 in 4.0 mi Calm Calm - N/A   Overcast
8:30 AM 76.5 °F - 73.2 °F 90% 29.96 in 5.0 mi Calm Calm - N/A   Overcast
8:50 AM 76.5 °F - 73.0 °F 89% 29.97 in 5.0 mi SSW 3.5 mph - N/A   Overcast
9:10 AM 76.8 °F - 73.4 °F 89% 29.96 in 7.0 mi Calm Calm - N/A   Overcast
9:30 AM 77.2 °F - 73.4 °F 88% 29.96 in 7.0 mi Calm Calm - N/A   Overcast
9:50 AM 78.3 °F - 73.0 °F 84% 29.97 in 10.0 mi Calm Calm - N/A   Overcast
10:10 AM 79.0 °F - 73.2 °F 82% 29.97 in 10.0 mi Calm Calm - N/A   Overcast
10:50 AM 82.2 °F 88.0 °F 73.6 °F 75% 29.98 in 10.0 mi Calm Calm - N/A   Mostly Cloudy
11:10 AM 83.8 °F 90.4 °F 73.4 °F 71% 29.97 in 10.0 mi Calm Calm - N/A   Mostly Cloudy
11:30 AM 85.1 °F 91.8 °F 73.2 °F 67% 29.97 in 10.0 mi Calm Calm - N/A   Overcast
11:50 AM 85.5 °F 93.0 °F 73.9 °F 68% 29.97 in 10.0 mi NNW 4.6 mph - N/A   Overcast
12:10 PM 85.6 °F 93.0 °F 73.8 °F 67% 29.97 in 10.0 mi Calm Calm - N/A   Overcast
12:30 PM 87.1 °F 95.4 °F 74.1 °F 65% 29.95 in 10.0 mi Calm Calm - N/A   Scattered Clouds
12:50 PM 88.0 °F 96.0 °F 73.4 °F 62% 29.94 in 10.0 mi Calm Calm - N/A   Scattered Clouds
1:10 PM 88.9 °F 96.6 °F 73.0 °F 59% 29.94 in 10.0 mi SW 3.5 mph - N/A   Mostly Cloudy
1:30 PM 89.2 °F 96.9 °F 72.9 °F 58% 29.93 in 10.0 mi Calm Calm - N/A   Mostly Cloudy
1:50 PM 90.1 °F 97.8 °F 72.7 °F 56% 29.92 in 10.0 mi Calm Calm - N/A   Scattered Clouds
2:10 PM 90.5 °F 98.1 °F 72.5 °F 55% 29.92 in 10.0 mi Calm Calm - N/A   Scattered Clouds
2:30 PM 91.8 °F 99.7 °F 72.3 °F 53% 29.91 in 10.0 mi SW 3.5 mph - N/A   Scattered Clouds
2:50 PM 91.2 °F 99.1 °F 72.5 °F 54% 29.90 in 10.0 mi Calm Calm - N/A   Scattered Clouds
3:10 PM 92.3 °F 99.7 °F 71.8 °F 51% 29.90 in 10.0 mi Calm Calm - N/A   Scattered Clouds
3:30 PM 93.9 °F 100.3 °F 70.5 °F 46% 29.89 in 10.0 mi Calm Calm - N/A   Scattered Clouds
3:50 PM 93.0 °F 100.1 °F 71.2 °F 49% 29.88 in 10.0 mi Calm Calm - N/A   Scattered Clouds
4:10 PM 93.7 °F 100.5 °F 70.7 °F 47% 29.87 in 10.0 mi Calm Calm - N/A   Scattered Clouds
4:30 PM 92.7 °F 98.8 °F 70.2 °F 48% 29.86 in 10.0 mi Calm Calm - N/A   Scattered Clouds
4:50 PM 93.6 °F 99.5 °F 70.2 °F 46% 29.86 in 10.0 mi Calm Calm - N/A   Scattered Clouds
5:10 PM 95.0 °F 101.3 °F 70.2 °F 44% 29.86 in 10.0 mi Calm Calm - N/A   Mostly Cloudy
5:30 PM 90.3 °F 97.2 °F 71.4 °F 54% 29.87 in 10.0 mi South 5.8 mph 16.1 mph N/A   Overcast
5:50 PM 84.6 °F 91.4 °F 73.6 °F 69% 29.87 in 2.5 mi SSE 13.8 mph 17.3 mph N/A Rain Heavy Rain
6:10 PM 80.6 °F 85.0 °F 72.9 °F 77% 29.88 in 3.0 mi North 10.4 mph - N/A Rain Rain
6:30 PM 80.1 °F 85.1 °F 75.0 °F 85% 29.90 in 1.2 mi Calm Calm - N/A Rain , Thunderstorm Heavy Thunderstorms and Rain
6:50 PM 80.6 °F 86.2 °F 75.2 °F 84% 29.90 in 10.0 mi East 5.8 mph - N/A Rain , Thunderstorm Rain
7:10 PM 78.8 °F - 73.9 °F 85% 29.89 in 10.0 mi ENE 3.5 mph - N/A Thunderstorm Overcast
7:30 PM 79.2 °F - 74.7 °F 86% 29.90 in 10.0 mi SSW 3.5 mph - N/A Rain , Thunderstorm Light Thunderstorms and Rain
7:50 PM 78.8 °F - 74.1 °F 85% 29.92 in 10.0 mi SSE 5.8 mph - N/A Thunderstorm Thunderstorm
8:10 PM 78.3 °F - 72.9 °F 83% 29.93 in 10.0 mi South 8.1 mph - N/A Thunderstorm Thunderstorm
8:30 PM 77.9 °F - 72.5 °F 83% 29.93 in 10.0 mi South 4.6 mph - N/A Thunderstorm Overcast
8:50 PM 77.2 °F - 72.7 °F 86% 29.93 in 10.0 mi South 4.6 mph - N/A Thunderstorm Scattered Clouds
9:10 PM 77.0 °F - 72.5 °F 86% 29.94 in 10.0 mi SSW 6.9 mph - N/A Thunderstorm Scattered Clouds
9:30 PM 77.0 °F - 71.8 °F 84% 29.94 in 10.0 mi SSW 4.6 mph - N/A   Scattered Clouds
9:50 PM 77.0 °F - 71.6 °F 83% 29.93 in 10.0 mi Calm Calm - N/A   Clear
10:10 PM 76.8 °F - 71.6 °F 84% 29.94 in 10.0 mi Calm Calm - N/A   Clear
10:30 PM 76.5 °F - 71.6 °F 85% 29.95 in 10.0 mi Calm Calm - N/A   Clear
10:50 PM 76.5 °F - 71.6 °F 85% 29.95 in 10.0 mi Calm Calm - N/A   Clear
11:10 PM 76.3 °F - 71.6 °F 85% 29.94 in 10.0 mi Calm Calm - N/A   Clear
11:30 PM 76.1 °F - 71.6 °F 86% 29.94 in 10.0 mi Calm Calm - N/A   Clear
11:50 PM 76.1 °F - 71.6 °F 86% 29.94 in 10.0 mi Calm Calm - N/A   Clear